Sydney, Australia

10:09 PM AEDT on February 26, 2017 (GMT +1100)
Kingsford Smith International

Weather History for YSSY - December, 2013

Change the Weather History Date:

Wednesday, December 25, 2013

  Actual Average Record
Temperature  
Mean Temperature 67 °F -  
Max Temperature 70 °F 80 °F 100 °F (2003)
Min Temperature 64 °F 65 °F 60 °F (2006)
Cooling Degree Days 2    
Growing Degree Days 17 (Base 50)    
Moisture  
Dew Point 64 °F    
Average Humidity 88    
Maximum Humidity 94    
Minimum Humidity 76    
Precipitation  
Precipitation 0.28 in 0.14 in - ()
Sea Level Pressure  
Sea Level Pressure 30.02 in    
Wind  
Wind Speed 7 mph ()    
Max Wind Speed 18 mph    
Max Gust Speed -    
Visibility 5.7 miles    
Events Rain    
Averages and records for this station are not official NWS values.
T = Trace of Precipitation, MM = Missing Value Source: Averaged Metar Reports

Daily Weather History Graph

Daily Weather History Graph

Search for Another Location

Airport or City:

Trip Planner

Search our weather history database for the weather conditions in past years. The results will help you decide how hot, cold, wet, or windy it might be!

Date:

Astronomy

Dec. 25, 2013 Rise Set
Actual Time 5:42 AM AEDT 8:07 PM AEDT
Civil Twilight 5:13 AM AEDT 8:36 PM AEDT
Nautical Twilight 4:37 AM AEDT 9:12 PM AEDT
Astronomical Twilight 3:58 AM AEDT 9:52 PM AEDT
Moon 12:05 AM AEDT (12/25) 12:30 PM AEDT (12/25)
Length of Visible Light 15h 23m
Length of Day
14h 24m
Waning Gibbous, 55% of the Moon is Illuminated
Dec 25
Waning Gibbous
Dec 26
Last Quarter
Jan 1
New
Jan 8
First Quarter
Jan 16
Full

Hourly Weather History & Observations

Time (AEDT) Temp. Dew Point Humidity Pressure Visibility Wind Dir Wind Speed Gust Speed Precip Events Conditions
12:00 AM 65 °F 62 °F 87% 30.12 in 16 mi WSW 5.8 mph - -   Partly Cloudy
12:00 AM 64.4 °F 62.6 °F 94% 30.12 in 6.2 mi WSW 5.8 mph - N/A   Mostly Cloudy
12:30 AM 66.2 °F 62.6 °F 88% 30.09 in 6.2 mi WSW 5.8 mph - N/A   Mostly Cloudy
1:00 AM 65 °F 62 °F 87% 30.11 in - WSW 6.9 mph - -  
1:00 AM 66.2 °F 62.6 °F 88% 30.09 in 6.2 mi WSW 6.9 mph - N/A   Mostly Cloudy
1:30 AM 66.2 °F 62.6 °F 88% 30.09 in 6.2 mi WSW 4.6 mph - N/A   Mostly Cloudy
2:00 AM 66 °F 62 °F 82% 30.10 in - NW 4.6 mph - -  
2:00 AM 66.2 °F 62.6 °F 88% 30.09 in 6.2 mi NW 4.6 mph - N/A Rain Light Rain Showers
2:30 AM 66.2 °F 60.8 °F 83% 30.06 in 6.2 mi NW 5.8 mph - N/A   Mostly Cloudy
3:00 AM 65 °F 62 °F 86% 30.08 in 14 mi West 5.8 mph - -   Overcast
3:00 AM 64.4 °F 62.6 °F 94% 30.06 in 6.2 mi West 5.8 mph - N/A   Mostly Cloudy
3:30 AM 66.2 °F 60.8 °F 83% 30.06 in 6.2 mi West 5.8 mph - N/A   Mostly Cloudy
4:00 AM 65 °F 61 °F 83% 30.06 in - NW 4.6 mph - -  
4:00 AM 66.2 °F 60.8 °F 83% 30.04 in 6.2 mi NW 4.6 mph - N/A   Mostly Cloudy
4:30 AM 64.4 °F 60.8 °F 88% 30.04 in 6.2 mi WNW 4.6 mph - N/A   Mostly Cloudy
5:00 AM 65 °F 61 °F 82% 30.06 in - West 4.6 mph - -  
5:00 AM 64.4 °F 60.8 °F 88% 30.04 in 6.2 mi West 4.6 mph - N/A   Mostly Cloudy
5:30 AM 64.4 °F 60.8 °F 88% 30.04 in 6.2 mi SW 3.5 mph - N/A   Mostly Cloudy
6:00 AM 65 °F 61 °F 83% 30.06 in 14 mi West 5.8 mph - -   Mostly Cloudy
6:00 AM 66.2 °F 60.8 °F 83% 30.04 in 6.2 mi West 5.8 mph - N/A   Mostly Cloudy
6:30 AM 66.2 °F 60.8 °F 83% 30.06 in 6.2 mi West 5.8 mph - N/A   Mostly Cloudy
7:00 AM 67 °F 61 °F 76% 30.09 in - West 4.6 mph - -  
7:00 AM 66.2 °F 60.8 °F 83% 30.06 in 6.2 mi West 4.6 mph - N/A   Mostly Cloudy
7:30 AM 66.2 °F 60.8 °F 83% 30.06 in 6.2 mi WNW 5.8 mph - N/A   Mostly Cloudy
8:00 AM 67 °F 62 °F 77% 30.09 in - West 4.6 mph - -  
8:00 AM 66.2 °F 60.8 °F 83% 30.09 in 6.2 mi West 4.6 mph - N/A   Mostly Cloudy
8:30 AM 68.0 °F 62.6 °F 83% 30.09 in 3.7 mi West 3.5 mph - N/A Rain Light Rain Showers
8:42 AM 68.0 °F 62.6 °F 83% 30.09 in 2.5 mi WNW 1.2 mph - N/A   Heavy Drizzle
9:00 AM 66 °F 63 °F 88% 30.10 in 4 mi NW 5.8 mph - - Rain Heavy Drizzle
9:00 AM 66.2 °F 62.6 °F 88% 30.09 in 3.7 mi NW 5.8 mph - N/A   Drizzle
9:23 AM 66.2 °F 62.6 °F 88% 30.09 in 5.6 mi WNW 5.8 mph - N/A   Mostly Cloudy
9:30 AM 66.2 °F 64.4 °F 94% 30.09 in 6.2 mi WNW 5.8 mph - N/A   Mostly Cloudy
10:00 AM 67 °F 64 °F 86% 30.09 in - West 4.6 mph - -  
10:00 AM 66.2 °F 64.4 °F 94% 30.06 in 6.2 mi West 4.6 mph - N/A Rain Light Rain Showers
10:11 AM 68.0 °F 64.4 °F 88% 30.06 in 3.7 mi West 4.6 mph - N/A Rain Light Rain Showers
10:30 AM 66.2 °F 64.4 °F 94% 30.06 in 4.3 mi West 3.5 mph - N/A Rain Light Rain Showers
11:00 AM 67 °F 65 °F 90% 30.09 in - West 2.3 mph - -  
11:00 AM 68.0 °F 64.4 °F 88% 30.06 in 6.2 mi West 2.3 mph - N/A Rain Light Rain Showers
11:30 AM 68.0 °F 64.4 °F 88% 30.06 in 6.2 mi WSW 5.8 mph - N/A Rain Light Rain Showers
12:00 PM 69 °F 66 °F 86% 30.08 in 4 mi Calm Calm - - Rain Light Rain
12:00 PM 68.0 °F 66.2 °F 94% 30.06 in 3.7 mi Calm Calm - N/A Rain Light Rain
12:30 PM 69.8 °F 66.2 °F 88% 30.06 in 4.3 mi NW 5.8 mph - N/A Rain Light Rain
1:00 PM 68 °F 65 °F 87% 30.06 in - NNE 10.4 mph - -  
1:00 PM 68.0 °F 64.4 °F 88% 30.04 in 3.1 mi NNE 10.4 mph - N/A Rain Light Rain
1:30 PM 69.8 °F 66.2 °F 88% 30.04 in 4.3 mi NNE 10.4 mph - N/A Rain Light Rain
2:00 PM 70 °F 66 °F 83% 30.04 in - NE 9.2 mph - -  
2:00 PM 69.8 °F 66.2 °F 88% 30.04 in 6.2 mi NE 9.2 mph - N/A Rain Light Rain
2:30 PM 69.8 °F 66.2 °F 88% 30.01 in 6.2 mi NE 11.5 mph - N/A Rain Light Rain
3:00 PM 70 °F 66 °F 84% 30.02 in 9 mi NE 12.7 mph - - Rain Light Rain
3:00 PM 69.8 °F 66.2 °F 88% 30.01 in 6.2 mi NE 12.7 mph - N/A Rain Light Rain
4:00 PM 70 °F 66 °F 82% 30.00 in - NE 12.7 mph - -  
4:00 PM 69.8 °F 66.2 °F 88% 29.98 in 6.2 mi NE 12.7 mph - N/A   Light Drizzle
5:00 PM 69 °F 66 °F 88% 29.96 in - ENE 17.3 mph - -  
5:00 PM 68.0 °F 66.2 °F 94% 29.95 in 5.0 mi ENE 17.3 mph - N/A Rain Light Rain Showers
5:30 PM 68.0 °F 66.2 °F 94% 29.95 in 6.2 mi NE 15.0 mph - N/A Rain Light Rain Showers
6:00 PM 68 °F 66 °F 90% 29.95 in 7 mi ENE 15.0 mph - - Rain Light Rain Showers
6:00 PM 68.0 °F 66.2 °F 94% 29.95 in 5.6 mi ENE 15.0 mph - N/A Rain Light Rain
6:30 PM 68.0 °F 66.2 °F 94% 29.95 in 5.0 mi NE 15.0 mph - N/A Rain Rain Showers
6:39 PM 69.8 °F 66.2 °F 88% 29.95 in 4.3 mi NE 13.8 mph - N/A Rain Rain
6:46 PM 69.8 °F 66.2 °F 88% 29.95 in 3.7 mi NE 15.0 mph - N/A Rain Rain
7:00 PM 69 °F 66 °F 87% 29.96 in - NE 13.8 mph - -  
7:00 PM 68.0 °F 66.2 °F 94% 29.95 in 3.7 mi NE 13.8 mph - N/A Rain Rain
7:14 PM 68.0 °F 66.2 °F 94% 29.95 in 4.3 mi NE 12.7 mph - N/A Rain Light Rain
7:30 PM 69.8 °F 66.2 °F 88% 29.95 in 3.1 mi NE 11.5 mph - N/A Rain Rain
8:00 PM 69 °F 66 °F 86% 29.96 in - NNE 13.8 mph - -  
8:00 PM 68.0 °F 66.2 °F 94% 29.95 in 3.7 mi NNE 13.8 mph - N/A Rain Rain
8:21 PM 68.0 °F 66.2 °F 94% 29.95 in 3.7 mi NE 13.8 mph - N/A Rain Rain
8:30 PM 68.0 °F 66.2 °F 94% 29.95 in 3.7 mi NE 12.7 mph - N/A Rain Rain
9:00 PM 68 °F 66 °F 93% 29.96 in 5 mi NE 12.7 mph - - Rain Light Rain Showers
9:00 PM 68.0 °F 66.2 °F 94% 29.95 in 3.7 mi NE 12.7 mph - N/A Rain Rain
9:19 PM 68.0 °F 66.2 °F 94% 29.95 in 3.7 mi NE 13.8 mph - N/A Rain Rain
9:30 PM 68.0 °F 66.2 °F 94% 29.95 in 3.7 mi NE 15.0 mph - N/A Rain Rain
10:00 PM 69 °F 67 °F 90% 29.95 in - NE 11.5 mph - -  
10:00 PM 68.0 °F 66.2 °F 94% 29.95 in 3.7 mi NE 11.5 mph - N/A Rain Rain
10:30 PM 68.0 °F 66.2 °F 94% 29.92 in 4.3 mi ENE 11.5 mph - N/A Rain Rain
10:50 PM 69.8 °F 66.2 °F 88% 29.92 in 6.2 mi NE 18.4 mph - N/A Rain Light Rain
10:54 PM 68.0 °F 66.2 °F 94% 29.92 in 5.6 mi NE 18.4 mph - N/A Rain Light Rain
11:00 PM 69 °F 66 °F 87% 29.92 in - NE 16.1 mph - -  
11:00 PM 69.8 °F 66.2 °F 88% 29.92 in 6.2 mi NE 16.1 mph - N/A Rain Light Rain
11:30 PM 68.0 °F 66.2 °F 94% 29.89 in 6.2 mi NNE 16.1 mph - N/A Rain Light Rain